London, United Kingdom

5:48 PM BST on September 27, 2016 (GMT +0100)
Heathrow

Weather History for EGLL - February, 2014

Change the Weather History Date:

Monday, February 10, 2014

  Actual Average Record
Temperature  
Mean Temperature 43 °F -  
Max Temperature 49 °F 48 °F 59 °F (2008)
Min Temperature 37 °F 37 °F 26 °F (2006)
Degree Days  
Heating Degree Days 22    
Moisture  
Dew Point 37 °F    
Average Humidity 83    
Maximum Humidity 100    
Minimum Humidity 64    
Precipitation  
Precipitation 0.04 in - - ()
Sea Level Pressure  
Sea Level Pressure 29.32 in    
Wind  
Wind Speed 6 mph ()    
Max Wind Speed 16 mph    
Max Gust Speed -    
Visibility 8.9 miles    
Events Rain    
Averages and records for this station are not official NWS values.
T = Trace of Precipitation, MM = Missing Value Source: Averaged Metar Reports

Daily Weather History Graph

Daily Weather History Graph

Search for Another Location

Airport or City:

Trip Planner

Search our weather history database for the weather conditions in past years. The results will help you decide how hot, cold, wet, or windy it might be!

Date:

Astronomy

Feb. 10, 2014 Rise Set
Actual Time 7:25 AM GMT 5:07 PM GMT
Civil Twilight 6:50 AM GMT 5:42 PM GMT
Nautical Twilight 6:10 AM GMT 6:22 PM GMT
Astronomical Twilight 5:32 AM GMT 7:00 PM GMT
Moon 1:11 PM GMT (2/10) 4:19 AM GMT (2/10)
Length of Visible Light 10h 52m
Length of Day
9h 42m
Waxing Gibbous, 83% of the Moon is Illuminated
Feb 10
Waxing Gibbous
Feb 14
Full
Feb 22
Last Quarter
Mar 1
New
Mar 8
First Quarter

Hourly Weather History & Observations

Time (GMT) Temp. Windchill Dew Point Humidity Pressure Visibility Wind Dir Wind Speed Gust Speed Precip Events Conditions
12:00 AM 41 °F - 35 °F 71% 29.27 in 17 mi SSW 4.6 mph - - Rain Rain
12:20 AM 41.0 °F 39.0 °F 35.6 °F 81% 29.27 in 6.2 mi SSW 3.5 mph - N/A Rain Light Rain
12:50 AM 41.0 °F 38.0 °F 37.4 °F 87% 29.27 in 6.2 mi SSW 4.6 mph - N/A Rain Light Rain
1:00 AM 41 °F - 36 °F 78% 29.27 in 17 mi SSW 5.8 mph - - Rain Rain
1:20 AM 41.0 °F 36.4 °F 37.4 °F 87% 29.24 in 6.2 mi SSE 6.9 mph - N/A   Mostly Cloudy
1:50 AM 41.0 °F 37.1 °F 37.4 °F 87% 29.24 in 6.2 mi SSE 5.8 mph - N/A   Unknown
2:00 AM 40 °F - 38 °F 88% 29.25 in 15 mi SSE 6.9 mph - - Rain Light Rain Showers
2:20 AM 41.0 °F 37.1 °F 37.4 °F 87% 29.24 in 6.2 mi SSE 5.8 mph - N/A   Drizzle
2:50 AM 39.2 °F 35.0 °F 37.4 °F 93% 29.24 in 6.2 mi SSE 5.8 mph - N/A   Partly Cloudy
3:00 AM 40 °F - 38 °F 88% 29.24 in 14 mi SSE 8.1 mph - - Rain Rain
3:20 AM 39.2 °F 33.6 °F 37.4 °F 93% 29.21 in 6.2 mi SE 8.1 mph - N/A   Partly Cloudy
3:50 AM 39.2 °F 35.0 °F 37.4 °F 93% 29.21 in 6.2 mi SE 5.8 mph - N/A   Partly Cloudy
4:00 AM 39 °F - 37 °F 92% 29.23 in 19 mi SE 5.8 mph - - Rain Light Rain Showers
4:20 AM 39.2 °F - 37.4 °F 93% 29.24 in 6.2 mi Variable 2.3 mph - N/A Rain Light Rain
4:50 AM 41.0 °F 39.0 °F 37.4 °F 87% 29.24 in 6.2 mi East 3.5 mph - N/A   Mostly Cloudy
5:00 AM 40 °F - 38 °F 88% 29.23 in 17 mi East 3.5 mph - - Rain Light Rain Showers
5:20 AM 39.2 °F 34.2 °F 37.4 °F 93% 29.21 in 6.2 mi ESE 6.9 mph - N/A   Scattered Clouds
5:50 AM 39.2 °F 34.2 °F 37.4 °F 93% 29.24 in 6.2 mi ESE 6.9 mph - N/A   Partly Cloudy
6:00 AM 39 °F - 37 °F 90% 29.24 in 18 mi ESE 8.1 mph - - Rain Rain
6:20 AM 39.2 °F 34.2 °F 37.4 °F 93% 29.24 in 6.2 mi SE 6.9 mph - N/A   Partly Cloudy
6:50 AM 39.2 °F 35.0 °F 37.4 °F 93% 29.24 in 6.2 mi ESE 5.8 mph - N/A   Scattered Clouds
7:00 AM 40 °F - 37 °F 87% 29.24 in 19 mi East 4.6 mph - - Rain Light Rain Showers
7:20 AM 39.2 °F 35.9 °F 37.4 °F 93% 29.24 in 6.2 mi ESE 4.6 mph - N/A   Mostly Cloudy
7:50 AM 39.2 °F 37.0 °F 39.2 °F 100% 29.24 in 6.2 mi Variable 3.5 mph - N/A   Scattered Clouds
8:00 AM 40 °F - 38 °F 90% 29.26 in 17 mi ESE 4.6 mph - - Rain Rain
8:20 AM 41.0 °F 38.0 °F 39.2 °F 93% 29.27 in 6.2 mi SE 4.6 mph - N/A   Mostly Cloudy
8:50 AM 41.0 °F 39.0 °F 39.2 °F 93% 29.27 in 6.2 mi Variable 3.5 mph - N/A   Mostly Cloudy
9:00 AM 41 °F - 39 °F 90% 29.27 in 19 mi East 3.5 mph - - Rain Rain
9:20 AM 41.0 °F 39.0 °F 39.2 °F 93% 29.27 in 6.2 mi Variable 3.5 mph - N/A   Mostly Cloudy
9:50 AM 42.8 °F 41.1 °F 41.0 °F 93% 29.27 in 6.2 mi Variable 3.5 mph - N/A   Mostly Cloudy
10:00 AM 42 °F - 40 °F 90% 29.27 in 17 mi ESE 5.8 mph - - Rain Rain
10:20 AM 42.8 °F 40.1 °F 41.0 °F 93% 29.27 in 6.2 mi SSE 4.6 mph - N/A   Scattered Clouds
10:50 AM 44.6 °F 41.4 °F 41.0 °F 87% 29.27 in 6.2 mi South 5.8 mph - N/A   Scattered Clouds
11:00 AM 44 °F - 41 °F 84% 29.29 in 12 mi South 5.8 mph - - Rain Light Rain
11:20 AM 44.6 °F 40.2 °F 41.0 °F 87% 29.30 in 6.2 mi SSW 8.1 mph - N/A   Mostly Cloudy
11:50 AM 44.6 °F 39.7 °F 41.0 °F 87% 29.30 in 6.2 mi SW 9.2 mph - N/A   Mostly Cloudy
12:00 PM 46 °F - 42 °F 80% 29.29 in 22 mi SSW 10.4 mph - - Rain Light Rain Showers
12:20 PM 46.4 °F 41.9 °F 41.0 °F 81% 29.30 in 6.2 mi SW 9.2 mph - N/A   Scattered Clouds
12:50 PM 48.2 °F - 39.2 °F 71% 29.27 in 6.2 mi SSW 8.1 mph - N/A   Partly Cloudy
1:00 PM 47 °F - 39 °F 65% 29.29 in 19 mi SW 4.6 mph - - Rain Light Rain Showers
1:20 PM 50.0 °F - 41.0 °F 71% 29.27 in 6.2 mi SSW 8.1 mph - N/A   Scattered Clouds
1:50 PM 41.0 °F 32.8 °F 37.4 °F 87% 29.30 in 5.6 mi West 16.1 mph - N/A Rain Rain Showers
2:00 PM 42 °F - 38 °F 79% 29.30 in 4 mi West 15.0 mph - - Rain Rain Showers
2:20 PM 44.6 °F 40.7 °F 41.0 °F 87% 29.27 in 6.2 mi NW 6.9 mph - N/A   Scattered Clouds
2:50 PM 44.6 °F 40.7 °F 39.2 °F 81% 29.30 in 6.2 mi West 6.9 mph - N/A   Scattered Clouds
3:00 PM 44 °F - 38 °F 71% 29.30 in 19 mi West 6.9 mph - - Rain Rain
3:20 PM 44.6 °F 42.2 °F 41.0 °F 87% 29.30 in 6.2 mi WNW 4.6 mph - N/A   Scattered Clouds
3:50 PM 44.6 °F 39.2 °F 39.2 °F 81% 29.33 in 6.2 mi West 10.4 mph - N/A   Scattered Clouds
4:00 PM 45 °F - 39 °F 71% 29.32 in 25 mi West 8.1 mph - - Rain Rain
4:20 PM 44.6 °F 39.7 °F 37.4 °F 76% 29.33 in 6.2 mi WNW 9.2 mph - N/A   Partly Cloudy
4:50 PM 44.6 °F 40.2 °F 37.4 °F 76% 29.36 in 6.2 mi West 8.1 mph - N/A   Mostly Cloudy
5:00 PM 44 °F - 37 °F 69% 29.36 in 22 mi West 8.1 mph - -   Scattered Clouds
5:20 PM 44.6 °F 38.8 °F 37.4 °F 76% 29.36 in 6.2 mi West 11.5 mph - N/A   Mostly Cloudy
5:50 PM 44.6 °F 39.2 °F 37.4 °F 76% 29.39 in 6.2 mi West 10.4 mph - N/A   Scattered Clouds
6:00 PM 44 °F - 38 °F 71% 29.40 in 19 mi West 8.1 mph - -   Scattered Clouds
6:20 PM 42.8 °F 37.5 °F 37.4 °F 81% 29.42 in 6.2 mi WNW 9.2 mph - N/A   Scattered Clouds
6:50 PM 42.8 °F 36.6 °F 35.6 °F 76% 29.42 in 6.2 mi WNW 11.5 mph - N/A   Scattered Clouds
7:00 PM 42 °F - 36 °F 70% 29.44 in 22 mi WNW 10.4 mph - -   Scattered Clouds
7:20 PM 42.8 °F 36.2 °F 35.6 °F 76% 29.44 in 6.2 mi WNW 12.7 mph - N/A   Scattered Clouds
7:50 PM 42.8 °F 35.1 °F 33.8 °F 70% 29.47 in 6.2 mi WNW 16.1 mph - N/A   Mostly Cloudy
8:00 PM 42 °F - 34 °F 64% 29.47 in 25 mi WNW 15.0 mph - -   Mostly Cloudy
8:20 PM 41.0 °F 35.8 °F 33.8 °F 76% 29.47 in 6.2 mi WNW 8.1 mph - N/A   Scattered Clouds
8:50 PM 39.2 °F 32.5 °F 33.8 °F 81% 29.50 in 6.2 mi West 10.4 mph - N/A   Scattered Clouds
9:00 PM 40 °F - 34 °F 72% 29.52 in 25 mi West 8.1 mph - -   Scattered Clouds
9:20 PM 39.2 °F 32.5 °F 33.8 °F 81% 29.50 in 6.2 mi West 10.4 mph - N/A   Partly Cloudy
9:50 PM 39.2 °F 31.6 °F 33.8 °F 81% 29.53 in - West 12.7 mph - N/A   Clear
10:00 PM 39 °F - 34 °F 76%  in 25 mi West 10.4 mph - -  
10:20 PM 37.4 °F 29.8 °F 33.8 °F 87% 29.53 in - West 11.5 mph - N/A   Clear
10:50 PM 39.2 °F 32.5 °F 33.8 °F 81% 29.53 in - WSW 10.4 mph - N/A   Clear
11:00 PM 38 °F - 33 °F 77% 29.54 in 25 mi WSW 9.2 mph - -  
11:20 PM 39.2 °F 33.6 °F 33.8 °F 81% 29.53 in - WSW 8.1 mph - N/A   Clear
11:50 PM 39.2 °F 34.2 °F 33.8 °F 81% 29.56 in - WSW 6.9 mph - N/A   Clear